Precipitable_Water
0.49 0.38 0.28 0.31 0.36 0.34 0.32 0.27 0.25 0.29 0.35 0.35 0.35 0.43 0.55 0.77 0.80 0.73 0.77 0.81 0.79 0.85 0.97 1.03 1.06 1.05 1.02 0.96 0.86 0.84 0.77 0.71 0.68 0.64 0.59 0.58 0.55 0.55 0.51 0.50 0.46 0.43 0.41 0.41
0.43 0.35 0.40 0.38 0.38 0.34 0.30 0.26 0.23 0.26 0.28 0.31 0.33 0.32 0.40 0.55 0.66 0.73 0.75 0.81 0.77 0.83 0.90 0.96 1.03 1.07 1.02 0.97 0.90 0.84 0.79 0.73 0.70 0.66 0.62 0.60 0.59 0.57 0.54 0.51 0.48 0.45 0.42 0.42
0.37 0.40 0.45 0.38 0.34 0.29 0.28 0.24 0.24 0.22 0.28 0.32 0.33 0.32 0.32 0.45 0.51 0.58 0.70 0.79 0.83 0.85 0.88 0.95 1.00 1.01 1.06 1.01 0.93 0.91 0.86 0.78 0.74 0.70 0.66 0.64 0.63 0.60 0.53 0.51 0.47 0.45 0.44 0.42
0.41 0.45 0.40 0.36 0.32 0.31 0.24 0.31 0.28 0.24 0.23 0.18 0.31 0.20 0.29 0.38 0.47 0.47 0.52 0.66 0.77 0.82 0.90 0.94 0.96 0.98 1.01 1.06 0.98 0.92 0.88 0.80 0.76 0.73 0.67 0.61 0.55 0.50 0.52 0.51 0.49 0.47 0.46 0.43
0.35 0.37 0.36 0.33 0.32 0.33 0.28 0.34 0.29 0.27 0.25 0.24 0.23 0.20 0.22 0.30 0.35 0.45 0.45 0.50 0.65 0.78 0.84 0.85 0.87 0.99 0.98 0.94 0.93 0.92 0.88 0.81 0.77 0.72 0.67 0.61 0.57 0.55 0.54 0.53 0.50 0.48 0.46 0.45
0.38 0.43 0.37 0.37 0.38 0.36 0.35 0.31 0.29 0.29 0.27 0.18 0.19 0.19 0.18 0.21 0.26 0.33 0.42 0.46 0.53 0.69 0.84 0.87 0.92 0.95 0.94 0.99 0.94 0.92 0.86 0.79 0.74 0.70 0.65 0.58 0.54 0.53 0.51 0.50 0.47 0.46 0.47 0.46
0.32 0.31 0.38 0.39 0.31 0.35 0.31 0.27 0.19 0.17 0.17 0.15 0.23 0.19 0.17 0.23 0.27 0.30 0.31 0.37 0.47 0.58 0.74 0.77 0.74 0.83 0.88 0.90 0.88 0.83 0.79 0.72 0.70 0.68 0.63 0.60 0.57 0.54 0.51 0.48 0.47 0.46 0.45 0.46
0.23 0.20 0.31 0.38 0.32 0.29 0.27 0.27 0.19 0.12 0.14 0.15 0.22 0.15 0.16 0.25 0.32 0.32 0.31 0.32 0.38 0.43 0.55 0.64 0.73 0.78 0.81 0.78 0.72 0.70 0.68 0.66 0.68 0.63 0.59 0.58 0.57 0.54 0.53 0.52 0.50 0.48 0.46 0.48
0.22 0.23 0.38 0.38 0.37 0.35 0.26 0.24 0.30 0.20 0.20 0.15 0.16 0.16 0.20 0.24 0.26 0.29 0.31 0.34 0.38 0.43 0.49 0.55 0.64 0.69 0.66 0.65 0.66 0.66 0.66 0.65 0.63 0.59 0.58 0.57 0.56 0.54 0.52 0.51 0.50 0.49 0.51 0.53
0.26 0.19 0.28 0.34 0.36 0.35 0.31 0.31 0.22 0.24 0.14 0.12 0.13 0.12 0.10 0.16 0.21 0.26 0.29 0.32 0.39 0.45 0.48 0.51 0.55 0.59 0.63 0.65 0.66 0.67 0.66 0.62 0.60 0.60 0.60 0.58 0.56 0.54 0.52 0.51 0.51 0.52 0.53 0.55
0.27 0.24 0.22 0.29 0.25 0.25 0.26 0.24 0.25 0.25 0.23 0.16 0.12 0.14 0.20 0.17 0.22 0.25 0.30 0.35 0.40 0.43 0.46 0.49 0.53 0.57 0.60 0.62 0.63 0.63 0.62 0.60 0.60 0.61 0.59 0.56 0.53 0.53 0.53 0.51 0.51 0.51 0.55 0.57
0.28 0.24 0.18 0.20 0.29 0.33 0.30 0.25 0.25 0.19 0.17 0.20 0.18 0.15 0.25 0.25 0.25 0.30 0.32 0.35 0.39 0.43 0.45 0.49 0.52 0.55 0.56 0.58 0.59 0.59 0.61 0.60 0.60 0.58 0.56 0.53 0.53 0.52 0.50 0.51 0.53 0.54 0.53 0.51
0.28 0.22 0.16 0.16 0.25 0.28 0.25 0.26 0.27 0.24 0.23 0.18 0.16 0.15 0.25 0.25 0.25 0.28 0.29 0.34 0.38 0.42 0.45 0.48 0.50 0.52 0.54 0.56 0.58 0.59 0.59 0.58 0.57 0.55 0.53 0.51 0.49 0.49 0.50 0.50 0.47 0.43 0.39 0.39
0.38 0.25 0.19 0.15 0.17 0.21 0.19 0.21 0.24 0.24 0.17 0.16 0.15 0.16 0.20 0.22 0.24 0.27 0.30 0.34 0.37 0.39 0.41 0.43 0.45 0.47 0.50 0.52 0.53 0.53 0.54 0.54 0.52 0.51 0.48 0.47 0.48 0.47 0.43 0.40 0.40 0.40 0.41 0.41
0.38 0.29 0.28 0.24 0.20 0.20 0.19 0.19 0.19 0.18 0.18 0.14 0.14 0.14 0.16 0.18 0.22 0.27 0.32 0.35 0.35 0.35 0.37 0.39 0.41 0.44 0.46 0.47 0.49 0.50 0.50 0.49 0.49 0.47 0.46 0.43 0.40 0.40 0.41 0.41 0.42 0.42 0.41 0.40
0.39 0.32 0.33 0.29 0.29 0.25 0.20 0.19 0.16 0.17 0.17 0.17 0.18 0.15 0.22 0.23 0.25 0.29 0.31 0.32 0.32 0.34 0.36 0.38 0.41 0.43 0.43 0.44 0.44 0.46 0.47 0.46 0.45 0.39 0.38 0.41 0.43 0.44 0.43 0.42 0.40 0.39 0.37 0.33
0.35 0.33 0.31 0.27 0.31 0.30 0.24 0.26 0.26 0.23 0.21 0.17 0.13 0.16 0.20 0.19 0.20 0.24 0.29 0.32 0.33 0.34 0.36 0.37 0.39 0.40 0.41 0.43 0.45 0.44 0.41 0.39 0.40 0.43 0.45 0.46 0.45 0.43 0.42 0.39 0.36 0.33 0.28 0.27
0.34 0.32 0.31 0.27 0.30 0.22 0.31 0.39 0.37 0.31 0.29 0.28 0.27 0.26 0.26 0.25 0.29 0.32 0.35 0.34 0.35 0.36 0.38 0.40 0.42 0.43 0.43 0.43 0.41 0.42 0.44 0.45 0.47 0.47 0.47 0.46 0.43 0.39 0.35 0.31 0.29 0.27 0.27 0.25
0.38 0.35 0.30 0.26 0.26 0.29 0.31 0.36 0.36 0.33 0.32 0.37 0.34 0.33 0.33 0.34 0.35 0.35 0.42 0.44 0.43 0.44 0.45 0.48 0.49 0.47 0.46 0.46 0.47 0.47 0.47 0.47 0.48 0.47 0.45 0.40 0.36 0.33 0.30 0.28 0.27 0.26 0.24 0.23
0.39 0.39 0.32 0.29 0.25 0.21 0.31 0.39 0.43 0.41 0.28 0.42 0.40 0.39 0.38 0.39 0.32 0.36 0.46 0.51 0.52 0.54 0.55 0.53 0.50 0.49 0.47 0.47 0.47 0.46 0.47 0.47 0.45 0.42 0.38 0.35 0.32 0.29 0.27 0.26 0.24 0.24 0.24 0.23
0.31 0.33 0.30 0.29 0.27 0.30 0.37 0.40 0.43 0.27 0.30 0.43 0.43 0.42 0.41 0.38 0.40 0.45 0.50 0.52 0.55 0.55 0.52 0.50 0.49 0.47 0.46 0.46 0.45 0.45 0.46 0.43 0.40 0.37 0.34 0.31 0.29 0.26 0.25 0.24 0.24 0.24 0.23 0.23
0.28 0.28 0.29 0.31 0.28 0.25 0.41 0.41 0.33 0.37 0.43 0.43 0.44 0.43 0.42 0.44 0.46 0.48 0.50 0.51 0.52 0.50 0.49 0.48 0.46 0.46 0.46 0.45 0.46 0.45 0.41 0.38 0.35 0.34 0.31 0.28 0.27 0.26 0.24 0.23 0.23 0.23 0.22 0.21
0.28 0.33 0.30 0.31 0.30 0.40 0.43 0.43 0.46 0.47 0.43 0.43 0.42 0.45 0.46 0.46 0.46 0.49 0.49 0.50 0.51 0.50 0.49 0.48 0.48 0.47 0.46 0.46 0.48 0.39 0.36 0.36 0.34 0.30 0.28 0.26 0.25 0.23 0.24 0.23 0.22 0.22 0.21 0.20
0.36 0.41 0.33 0.34 0.38 0.40 0.43 0.46 0.48 0.49 0.46 0.47 0.47 0.47 0.47 0.46 0.49 0.48 0.49 0.49 0.48 0.49 0.48 0.49 0.48 0.45 0.45 0.45 0.40 0.37 0.36 0.34 0.30 0.27 0.25 0.24 0.23 0.23 0.23 0.23 0.22 0.21 0.20 0.19
0.33 0.37 0.35 0.34 0.39 0.41 0.43 0.46 0.48 0.48 0.49 0.50 0.52 0.51 0.50 0.51 0.50 0.51 0.50 0.50 0.50 0.50 0.50 0.50 0.47 0.46 0.44 0.42 0.39 0.37 0.33 0.30 0.26 0.24 0.22 0.22 0.22 0.22 0.21 0.21 0.20 0.20 0.21 0.21
0.38 0.36 0.32 0.31 0.38 0.37 0.40 0.48 0.49 0.47 0.48 0.52 0.52 0.52 0.54 0.54 0.53 0.53 0.51 0.52 0.52 0.51 0.49 0.47 0.48 0.45 0.41 0.38 0.34 0.30 0.28 0.25 0.22 0.20 0.20 0.20 0.20 0.19 0.19 0.18 0.18 0.21 0.21 0.23
Wind_Speed
3 5 12 17 18 19 20 21 23 25 27 28 33 33 30 34 33 28 27 27 27 30 25 23 22 22 21 20 19 18 17 17 16 16 15 15 15 15 15 15 15 15 15 15
1 4 9 15 17 18 21 21 23 24 28 30 28 33 32 33 33 35 30 28 28 26 26 23 22 21 22 21 20 20 19 18 18 17 17 17 17 17 17 17 17 17 17 17
1 3 4 9 13 16 18 20 21 24 22 25 25 27 31 32 32 32 33 32 30 30 29 25 24 23 23 22 22 21 19 19 19 18 18 18 18 18 19 19 19 19 18 19
1 1 3 7 9 13 16 17 19 21 23 25 25 24 30 34 35 31 32 33 34 32 31 29 28 25 24 24 22 21 20 20 20 20 20 20 20 20 21 21 20 20 20 20
2 2 1 5 8 11 15 14 16 18 20 19 23 22 27 27 33 36 34 33 33 33 32 31 29 26 23 22 23 22 21 21 22 22 22 22 22 22 22 21 21 21 22 22
3 2 2 4 6 9 12 11 12 14 16 18 21 23 24 27 28 32 32 33 32 30 30 27 26 26 25 23 24 24 23 23 23 23 23 23 23 22 22 22 22 23 23 23
4 1 2 3 4 6 10 9 11 12 14 20 20 19 26 22 24 25 31 33 31 30 29 27 26 26 25 26 25 25 24 24 24 24 24 24 24 23 23 23 23 24 24 25
4 4 2 3 4 6 8 11 13 15 16 18 18 21 24 21 22 23 24 27 31 29 28 27 27 27 27 27 26 25 25 24 24 24 24 24 24 24 24 24 24 24 25 25
6 4 3 4 5 5 7 8 12 11 13 15 20 23 21 21 20 19 20 22 23 26 25 25 25 24 24 24 25 25 24 24 24 24 24 24 24 24 24 24 25 25 26 26
6 6 3 3 4 7 8 9 9 10 12 15 16 19 21 21 21 21 19 20 22 22 22 23 23 23 24 24 24 24 24 24 24 24 24 24 24 24 24 25 25 26 27 28
6 4 5 4 2 5 7 9 9 11 12 12 12 16 17 20 20 22 22 22 22 22 23 23 23 24 24 24 24 23 23 23 23 23 23 23 24 24 24 25 26 27 28 29
7 4 5 5 5 5 7 9 11 11 13 12 12 13 12 13 16 19 20 21 22 21 22 22 22 22 22 22 22 22 22 22 23 23 23 23 23 24 24 25 26 27 28 29
7 6 7 7 4 4 6 8 10 10 12 16 14 15 12 11 11 14 15 17 18 20 20 20 20 20 21 21 21 21 22 22 22 22 23 23 24 24 25 26 27 28 29 31
7 6 5 5 6 5 5 6 10 11 10 13 17 16 16 16 17 17 18 17 17 18 19 19 20 20 21 21 21 21 21 22 22 22 23 23 24 24 25 26 28 30 32 34
8 9 7 9 10 9 10 11 10 12 14 14 15 18 18 19 19 19 18 19 19 20 20 20 20 20 20 21 21 21 21 22 22 22 22 23 24 25 26 28 30 33 35 37
10 10 10 11 11 9 10 11 12 13 13 15 16 18 16 17 16 18 20 20 20 20 20 21 21 21 21 21 21 21 21 21 22 22 22 24 25 27 29 31 33 35 37 38
10 9 9 8 8 11 10 8 7 10 12 13 15 17 16 17 18 20 21 22 21 21 21 21 21 21 21 22 21 21 21 21 22 23 24 26 27 29 31 34 35 37 38 39
11 10 9 11 11 6 6 6 7 8 9 11 13 13 14 14 14 16 18 20 20 21 21 21 21 21 21 21 21 21 22 22 23 24 26 28 30 32 34 35 37 38 39 41
12 10 11 9 9 13 11 6 5 6 9 9 12 12 12 12 13 14 18 19 20 20 21 21 21 21 21 21 21 22 22 23 25 27 29 31 32 34 35 37 38 40 41 41
12 12 11 12 11 10 8 9 10 11 12 10 10 10 11 12 14 17 17 19 19 19 20 20 20 20 20 21 22 23 24 26 27 29 31 32 34 35 37 38 40 40 41 42
13 14 14 14 14 15 15 13 12 10 11 10 11 13 14 16 18 18 17 17 18 19 18 19 19 20 21 22 23 25 26 28 29 30 32 33 35 37 38 39 40 41 42 43
15 13 14 13 13 16 10 11 12 12 13 16 17 18 19 19 18 18 17 17 17 17 18 20 20 22 23 25 26 27 28 29 30 31 33 35 36 38 39 40 41 42 43 44
19 19 18 18 19 20 19 20 21 21 21 21 21 21 20 19 19 18 18 17 19 20 20 21 22 23 24 25 26 28 29 30 31 33 34 36 38 39 40 41 42 43 44 44
23 22 24 23 24 27 27 27 27 27 26 26 26 24 23 22 21 20 20 20 21 22 22 23 24 24 25 26 27 28 29 31 32 34 35 37 38 40 40 41 42 43 43 44
29 26 27 30 28 29 30 30 30 30 29 28 26 25 24 23 23 23 22 22 23 23 24 24 24 25 26 27 28 29 30 32 33 35 36 38 39 40 40 41 42 42 43 44
31 32 31 35 31 32 31 30 30 29 30 29 27 26 26 25 24 24 24 24 24 24 24 24 24 25 27 27 28 30 31 32 34 35 37 38 39 40 41 42 42 42 43 43
Wind_Direction
241 218 218 218 215 216 220 216 216 217 214 214 218 221 220 218 217 218 221 220 220 218 220 223 225 227 230 234 236 240 244 250 253 255 263 270 278 285 288 289 289 291 292 293
261 234 229 223 220 220 218 217 221 221 219 216 218 223 222 221 222 221 220 221 220 220 221 226 230 231 233 235 239 241 245 249 253 258 264 270 276 282 284 286 287 288 290 291
227 246 234 202 214 210 212 211 216 216 214 216 215 227 220 222 222 222 224 224 225 225 225 229 232 238 236 237 238 243 246 249 254 259 265 271 275 281 283 284 285 286 287 289
326 294 227 210 203 205 208 215 217 217 209 215 214 223 224 221 223 223 224 224 227 230 235 233 239 239 236 235 237 244 250 253 256 260 265 268 274 279 281 282 283 284 286 288
301 321 260 214 207 206 207 216 218 213 211 214 218 221 226 221 226 225 227 228 230 232 234 237 235 231 237 235 241 246 250 254 257 260 265 270 275 279 281 281 281 283 285 287
296 293 218 210 220 212 216 216 213 211 213 219 221 217 229 224 227 228 229 229 229 231 231 235 236 238 240 242 245 250 253 256 258 262 267 271 274 276 278 279 280 282 284 286
343 298 241 226 231 219 207 207 217 220 221 219 222 225 228 228 231 233 234 232 229 229 230 233 234 237 241 245 248 251 254 256 259 262 267 271 273 274 276 278 280 281 283 285
19 334 281 276 236 223 218 206 210 217 219 225 225 228 230 229 234 235 235 228 228 229 231 234 236 239 244 247 249 252 253 255 259 262 266 270 272 274 276 278 280 281 283 285
13 338 305 262 253 232 221 220 217 217 231 229 229 238 241 230 231 231 229 225 224 226 229 233 236 238 242 246 249 250 252 255 258 262 266 269 272 274 277 279 281 282 284 286
357 347 337 302 259 238 233 220 220 225 223 232 236 235 231 228 227 227 226 225 225 227 229 233 236 239 244 246 249 251 252 255 258 261 265 269 272 275 277 279 281 283 285 287
344 344 330 335 254 231 235 229 221 218 215 222 233 234 227 227 227 225 226 227 227 229 232 234 239 243 246 248 248 250 251 254 258 262 266 269 273 276 278 280 282 285 287 289
348 340 315 282 298 266 235 230 222 216 223 225 223 237 223 230 226 222 226 229 231 232 234 236 239 241 243 245 247 249 252 256 260 263 266 270 273 276 279 282 284 286 288 290
342 336 335 338 341 293 256 236 226 229 228 227 220 227 221 227 217 220 221 226 228 230 232 235 238 240 241 244 247 251 255 258 261 264 267 271 274 277 280 283 285 288 290 292
332 320 290 285 289 292 284 266 243 227 232 234 231 239 238 239 236 238 235 231 230 232 233 236 239 242 246 249 252 254 257 259 261 265 269 272 276 279 282 284 287 290 292 294
322 308 298 292 284 281 271 261 248 236 239 231 241 238 245 243 240 237 234 233 234 236 239 242 244 246 248 250 253 255 257 260 263 267 270 274 277 281 284 287 290 292 294 295
322 313 311 301 294 280 278 267 254 250 246 249 251 253 245 251 244 236 235 233 236 239 243 244 245 247 249 251 254 256 258 261 264 268 273 276 280 283 287 290 292 294 296 296
318 312 318 302 313 306 290 268 256 254 248 243 244 250 252 251 247 237 236 238 240 243 243 244 246 248 251 253 253 256 259 263 268 272 276 280 283 287 290 292 294 296 297 298
307 307 303 299 310 291 272 287 268 251 261 250 259 258 252 253 252 245 242 241 245 245 245 246 248 249 251 252 255 258 262 267 271 275 279 283 287 290 292 294 296 297 298 299
290 295 299 294 292 290 287 284 278 276 276 273 267 256 255 253 259 261 248 246 248 247 247 248 249 250 251 254 257 261 266 271 276 279 283 287 289 292 293 295 297 298 298 299
293 290 285 293 283 281 275 277 278 282 281 282 277 262 255 259 264 266 256 251 252 250 248 248 249 251 253 257 261 266 271 276 280 283 286 289 291 293 294 296 298 298 299 300
283 283 277 280 280 281 278 276 276 271 270 278 276 267 265 269 271 272 262 259 251 249 248 247 250 254 259 262 266 271 275 279 282 285 287 290 292 294 296 297 298 299 300 301
267 269 273 278 275 283 271 279 266 270 276 280 282 279 274 275 274 270 263 255 248 245 247 251 256 261 264 267 270 274 278 281 284 286 289 292 294 296 297 298 299 300 301 301
270 266 268 264 269 277 273 272 272 275 278 280 281 279 274 271 270 266 262 257 254 253 255 258 262 266 268 270 273 277 279 282 285 289 291 293 296 297 298 299 300 300 301 302
272 270 272 275 272 271 273 276 277 273 276 279 280 275 270 268 265 264 262 259 258 258 260 263 266 268 271 274 277 279 281 285 287 290 293 295 297 298 299 299 300 301 302 302
271 273 272 273 277 278 277 274 274 273 276 278 276 274 268 265 264 262 261 260 259 261 264 265 268 271 273 276 279 282 285 287 290 292 294 296 298 299 300 300 301 301 302 303
270 269 270 274 276 274 277 275 271 271 273 272 271 272 269 266 263 261 260 259 261 262 265 267 270 273 275 278 282 285 287 289 291 294 296 297 299 300 301 301 302 302 303 303